Temp
80 75 74 80 83 84 86 85 83 89 85 85 82 80 65 91 94 89 88 88 89 90 93 94 95 96 95 93 91 89 89 89 89 89 89 91 92 93 91 92 94 92 93 92
79 73 82 86 86 83 83 80 82 89 92 83 82 80 83 91 92 91 89 89 89 91 91 91 93 94 94 91 90 89 88 88 87 90 90 92 93 95 96 96 93 93 93 92
75 80 84 83 81 79 80 79 80 82 89 90 83 76 82 78 92 93 93 93 93 91 91 91 91 93 94 91 89 88 87 87 87 89 91 91 93 94 93 92 93 93 93 93
79 85 80 80 78 81 75 84 82 82 81 75 87 69 64 74 86 90 92 92 93 92 93 92 92 92 93 92 92 90 88 87 87 88 88 86 89 89 93 94 95 94 93 93
75 78 78 76 78 83 76 85 83 81 79 79 80 74 75 82 77 88 91 92 95 94 94 92 92 92 94 94 92 91 88 87 87 86 88 89 87 92 94 96 91 93 91 93
77 87 83 81 84 83 84 81 80 81 78 67 76 78 78 78 80 90 93 94 95 96 96 95 95 94 94 95 94 92 87 85 87 86 85 87 86 89 92 92 92 93 94 93
74 76 82 83 77 83 80 76 64 62 64 64 79 76 80 89 88 89 94 95 96 97 96 95 94 93 93 93 93 93 88 84 86 87 86 86 87 87 89 90 92 91 95 96
66 65 76 82 77 75 76 76 67 56 62 68 78 71 79 93 96 91 89 95 99 98 99 97 95 94 93 94 93 92 89 85 86 87 85 85 87 91 91 91 94 94 96 97
66 65 79 79 83 81 75 70 81 73 77 72 78 81 89 93 93 92 78 94 93 98 99 98 97 96 95 94 93 91 90 87 87 88 87 86 86 87 90 90 91 94 93 98
68 59 74 75 78 79 77 83 69 71 58 58 72 75 77 83 88 92 94 96 96 98 100 100 99 97 97 96 95 94 93 89 88 89 89 89 87 87 89 90 90 90 93 93
68 64 64 74 69 68 72 70 73 76 72 62 63 73 91 87 89 90 94 96 99 100 101 101 101 100 99 98 96 95 93 91 89 90 89 89 89 89 89 90 91 90 92 92
69 64 58 64 76 78 76 73 74 65 62 71 70 74 94 94 94 94 96 97 100 101 102 103 103 101 100 98 97 96 95 93 92 91 89 89 90 90 90 89 90 91 89 91
66 58 51 57 66 72 69 73 74 74 74 66 65 71 93 92 91 94 94 96 98 100 101 102 103 101 100 99 97 97 96 96 96 92 92 91 91 90 90 89 90 90 89 89
61 58 55 53 58 64 62 66 71 72 65 66 69 75 83 86 87 91 94 96 98 99 100 102 102 101 100 99 97 96 97 98 97 95 94 91 90 91 91 91 89 90 89 89
60 51 56 60 62 62 61 62 67 66 68 62 71 72 80 86 88 90 93 94 95 94 97 100 102 101 99 98 96 96 97 98 98 95 95 92 91 91 91 90 90 90 90 89
63 50 54 49 56 61 57 61 63 64 67 67 67 68 83 84 84 91 89 91 88 91 94 96 99 100 100 98 97 96 96 98 97 94 94 93 90 89 89 89 89 88 88 89
55 46 46 43 54 57 51 59 62 64 68 68 63 71 80 80 80 82 88 86 86 89 91 92 94 98 101 100 98 97 95 97 95 94 93 92 90 88 88 89 88 87 87 89
51 46 45 40 49 36 58 71 70 66 69 73 72 74 78 79 81 79 84 82 83 85 87 88 92 94 96 103 104 100 98 93 93 92 93 91 90 88 88 88 87 87 88 87
60 53 39 36 42 51 58 58 56 57 61 74 73 75 79 81 83 80 83 80 80 82 84 86 90 92 92 95 99 100 98 94 93 92 91 92 91 89 88 87 87 88 88 87
58 56 43 44 36 35 53 56 63 62 55 66 76 74 75 77 69 76 76 77 80 82 83 84 86 89 91 91 95 97 98 95 91 93 92 92 91 90 88 87 87 88 89 89
41 41 40 42 38 47 59 60 62 44 47 55 63 63 70 70 69 71 74 74 76 78 79 79 81 86 88 91 93 91 95 95 95 94 94 92 91 89 89 88 88 88 88 89
39 38 39 42 39 35 58 59 50 52 56 58 61 63 60 65 67 68 71 71 72 73 75 76 75 77 88 94 93 90 88 95 94 93 92 90 89 92 92 87 87 87 87 85
39 42 40 44 46 55 54 51 57 58 55 53 58 59 60 61 64 65 66 69 69 70 72 71 69 72 73 80 93 89 89 93 92 91 89 89 89 89 90 87 86 87 86 89
41 42 39 40 53 47 45 51 51 51 52 55 60 60 58 58 61 58 60 64 67 69 69 67 65 65 65 69 75 77 92 93 91 88 88 89 88 87 89 91 90 89 90 89
36 35 35 38 42 42 43 46 47 49 52 53 55 55 54 56 56 56 56 58 64 64 67 64 62 62 63 64 66 71 75 83 89 88 89 89 89 87 88 90 92 92 93 89
40 37 34 34 40 40 42 46 47 47 49 50 52 51 54 54 53 55 55 57 59 61 62 60 60 61 62 62 63 64 67 69 78 83 88 91 92 89 90 91 86 53 60 52
MSLP
1005.00 1004.29 1002.49 1001.81 1001.56 1000.70 998.97 998.17 997.81 997.10 998.53 998.63 999.38 1000.76 1002.28 1000.96 1001.49 1002.38 1003.31 1004.48 1005.48 1006.37 1007.61 1008.89 1009.66 1010.50 1011.36 1012.49 1013.42 1014.17 1014.79 1015.38 1016.16 1016.52 1016.72 1016.56 1016.33 1016.62 1016.82 1016.89 1017.24 1017.94 1018.05 1018.39
1003.56 1002.46 1002.22 1001.82 1001.17 1000.83 999.93 999.04 997.84 997.27 997.28 998.85 999.01 999.45 1000.43 1000.14 1000.40 1001.20 1002.33 1003.62 1004.79 1005.77 1007.05 1008.30 1009.23 1010.00 1010.82 1011.97 1012.91 1013.88 1014.60 1015.28 1016.01 1016.28 1016.44 1016.32 1016.22 1016.26 1016.33 1016.54 1017.30 1017.74 1018.04 1018.32
1002.03 1001.30 1001.92 1001.56 1001.17 1000.64 1000.20 999.55 998.71 998.04 997.64 997.70 998.33 999.23 999.39 1000.57 999.49 1000.20 1001.61 1002.79 1004.01 1004.88 1005.83 1007.33 1008.54 1009.25 1010.28 1011.27 1012.40 1013.40 1014.28 1014.96 1015.74 1015.93 1016.35 1016.44 1016.40 1016.17 1016.38 1016.48 1017.12 1017.49 1017.78 1018.12
1001.80 1001.45 1001.30 1001.30 1000.86 1000.79 1000.06 1000.28 999.81 998.82 998.22 997.30 998.31 998.60 999.92 1000.04 998.87 999.31 1000.71 1001.84 1002.87 1004.07 1005.32 1006.54 1007.77 1008.59 1009.30 1010.44 1011.83 1012.88 1013.92 1014.57 1015.37 1015.79 1015.89 1016.17 1015.96 1015.81 1015.90 1016.09 1016.37 1016.91 1017.48 1017.71
1001.29 1001.36 1001.04 1000.80 1000.69 1000.95 1000.61 1000.35 999.99 999.89 999.15 998.39 997.53 997.87 997.83 998.43 999.01 998.08 999.50 1000.75 1001.66 1002.88 1004.04 1005.20 1006.43 1007.50 1008.43 1009.70 1010.88 1012.08 1013.35 1014.15 1014.66 1015.37 1015.42 1015.86 1015.93 1015.78 1015.84 1015.75 1016.18 1016.63 1017.30 1017.50
1001.97 1001.05 1001.04 1000.67 1000.78 1001.13 1001.39 1000.98 1000.51 999.89 999.61 998.31 997.71 996.86 996.01 996.76 996.86 996.78 998.04 999.36 1000.52 1001.52 1002.86 1004.05 1005.56 1006.87 1007.86 1008.86 1009.99 1011.12 1012.33 1013.38 1014.17 1014.76 1015.35 1015.45 1015.73 1015.53 1015.40 1015.67 1015.93 1016.68 1016.74 1017.36
1002.14 1001.60 1001.36 1001.43 1000.68 1000.92 1001.29 1000.73 1000.01 999.60 998.53 997.16 997.18 996.46 994.90 994.24 995.84 996.22 996.08 997.82 999.20 1000.26 1001.64 1002.97 1004.30 1005.50 1006.62 1007.54 1008.70 1009.94 1011.26 1012.39 1013.35 1013.96 1014.69 1015.10 1015.35 1015.71 1015.54 1015.70 1015.87 1015.97 1015.99 1016.05
1001.75 1000.52 1000.82 1001.06 1000.98 1000.19 1000.39 1000.16 998.79 997.70 996.85 996.07 996.19 994.40 994.28 994.49 994.50 995.27 995.87 995.91 997.49 998.87 1000.14 1001.59 1002.84 1004.14 1005.36 1006.43 1007.64 1008.84 1010.01 1011.37 1012.34 1013.08 1013.74 1014.61 1015.02 1015.19 1015.52 1015.59 1015.54 1015.82 1015.54 1015.65
1002.72 1001.69 1000.82 1000.96 1000.80 1000.93 999.84 999.70 999.44 998.05 996.57 995.09 993.74 994.20 994.28 994.25 994.36 995.33 997.36 995.35 996.96 997.04 998.45 1000.16 1001.67 1002.99 1004.30 1005.48 1006.42 1007.57 1008.79 1010.18 1011.30 1012.07 1012.93 1013.66 1014.37 1014.76 1014.79 1015.03 1015.66 1015.58 1015.71 1015.43
1005.34 1003.88 1002.33 1001.90 1002.11 1001.50 1000.54 999.56 999.39 998.63 997.07 995.00 993.59 992.44 992.19 993.36 993.73 994.37 994.65 994.34 995.28 996.01 996.98 998.80 1000.36 1001.91 1003.15 1004.35 1005.62 1006.98 1008.01 1009.05 1010.12 1011.10 1011.88 1012.59 1013.37 1014.08 1014.38 1014.74 1014.98 1015.34 1015.40 1015.73
1007.40 1005.90 1004.26 1002.98 1002.36 1001.93 1001.38 1000.31 999.48 998.26 997.76 996.01 994.24 992.11 991.60 992.10 993.33 993.80 994.31 994.92 994.77 995.23 996.06 997.53 998.89 1000.46 1002.03 1003.38 1004.66 1005.77 1007.08 1008.14 1009.25 1010.04 1010.71 1011.44 1012.22 1013.04 1013.82 1014.05 1014.46 1014.95 1015.25 1015.43
1008.25 1007.38 1005.40 1003.93 1002.63 1002.64 1001.77 1000.46 1000.16 998.71 997.75 996.46 995.27 992.98 991.88 991.67 992.42 993.74 993.68 994.37 994.97 995.20 995.48 996.44 997.60 999.14 1000.59 1002.02 1003.23 1004.31 1005.47 1006.68 1007.70 1008.69 1009.68 1010.47 1011.22 1011.89 1012.58 1013.26 1013.80 1014.31 1014.86 1015.22
1009.71 1008.64 1007.14 1005.58 1004.60 1003.69 1002.34 1001.24 1000.60 999.82 998.63 996.41 995.43 994.24 993.22 992.91 993.08 993.34 993.91 994.41 994.65 994.90 995.30 996.08 997.01 998.01 999.40 1000.76 1002.09 1003.06 1004.31 1005.13 1006.29 1007.62 1008.47 1009.37 1010.08 1010.74 1011.28 1012.13 1012.88 1013.51 1014.12 1014.62
1012.12 1010.23 1008.21 1006.06 1004.75 1004.69 1003.16 1002.73 1001.68 1000.64 998.96 997.81 996.15 995.18 993.90 994.17 994.45 994.60 994.30 994.32 994.63 994.87 995.04 995.34 996.07 997.03 998.42 999.65 1000.94 1002.02 1002.94 1004.07 1005.14 1006.26 1007.18 1008.02 1008.74 1009.43 1010.34 1011.04 1011.90 1012.52 1013.16 1013.78
1012.71 1011.28 1009.97 1008.49 1007.19 1006.54 1005.29 1003.58 1001.91 1001.10 1000.36 999.23 997.68 996.60 995.22 994.70 995.11 995.22 995.15 995.09 995.07 995.32 995.12 995.26 995.59 996.13 997.56 998.96 1000.07 1001.36 1002.40 1003.25 1004.03 1004.94 1005.85 1006.57 1007.58 1008.56 1009.40 1010.22 1010.92 1011.69 1012.24 1012.80
1012.08 1011.63 1011.24 1010.34 1009.14 1007.27 1006.35 1005.30 1004.37 1003.10 1001.92 1001.20 1000.22 998.28 997.05 996.67 996.25 995.47 996.32 996.40 996.82 996.97 996.65 996.37 996.15 996.58 997.18 998.36 999.38 1000.48 1001.54 1002.11 1003.06 1003.77 1004.57 1005.52 1006.73 1007.66 1008.30 1009.17 1010.02 1010.79 1011.36 1011.92
1012.38 1013.25 1012.40 1011.00 1009.63 1008.01 1006.24 1005.35 1004.62 1003.73 1002.83 1001.95 1000.74 999.86 999.26 998.49 998.51 997.74 997.34 997.98 998.46 998.61 998.34 998.24 997.91 997.28 997.13 997.88 998.76 999.64 1000.65 1001.75 1002.40 1003.06 1004.02 1004.88 1005.81 1006.63 1007.40 1008.17 1009.05 1009.78 1010.49 1011.13
1012.88 1013.53 1013.40 1012.40 1010.26 1008.32 1006.12 1004.83 1004.24 1003.63 1002.80 1002.06 1001.51 1000.68 1000.18 999.75 999.60 1000.42 999.82 1000.10 1000.12 1000.02 999.89 999.74 999.34 998.80 998.31 997.61 997.66 998.88 999.89 1001.03 1001.52 1002.28 1003.01 1004.08 1004.93 1005.83 1006.68 1007.47 1008.06 1008.80 1009.48 1010.06
1012.02 1012.58 1013.82 1012.84 1010.92 1008.96 1006.62 1006.60 1006.74 1005.54 1003.50 1002.20 1001.56 1001.46 1000.74 1000.43 1000.38 1000.49 1000.40 1001.51 1001.65 1001.53 1001.17 1000.66 1000.11 999.60 999.18 998.64 997.95 997.89 999.01 1000.00 1001.02 1001.32 1002.10 1002.73 1003.74 1004.85 1005.86 1006.54 1007.13 1007.80 1008.53 1009.15
1011.96 1012.71 1013.75 1012.60 1011.19 1009.51 1008.09 1008.77 1008.59 1007.60 1005.61 1004.31 1001.62 1001.97 1001.77 1001.63 1001.44 1001.73 1002.91 1003.24 1002.81 1002.56 1002.01 1001.40 1000.68 999.98 999.32 999.08 998.83 998.12 998.10 998.95 999.78 1000.24 1000.85 1002.16 1003.24 1004.07 1004.90 1005.59 1006.20 1006.83 1007.50 1007.95
1013.09 1013.76 1013.22 1012.92 1011.96 1010.54 1008.79 1009.25 1009.30 1008.90 1008.73 1007.88 1006.61 1005.70 1004.51 1003.97 1003.97 1004.32 1004.51 1004.07 1003.91 1003.52 1002.86 1002.50 1001.32 999.76 998.84 998.66 998.50 998.26 997.68 997.71 998.45 1000.15 1000.98 1001.84 1002.68 1003.37 1004.22 1005.15 1005.84 1006.25 1006.69 1007.08
1014.06 1014.09 1013.78 1013.35 1012.12 1011.32 1011.45 1010.47 1010.64 1011.09 1010.91 1010.20 1009.17 1008.35 1007.78 1006.98 1006.63 1006.60 1005.87 1005.36 1005.02 1004.53 1003.86 1003.28 1002.21 1000.80 998.73 997.42 997.46 997.59 997.78 997.23 998.35 999.42 1000.26 1001.04 1001.99 1002.82 1003.54 1004.38 1005.04 1005.65 1006.18 1006.68
1015.35 1015.66 1014.80 1013.86 1012.61 1012.77 1013.40 1013.66 1013.11 1012.86 1012.06 1011.87 1010.86 1010.30 1009.86 1008.96 1008.38 1008.28 1007.62 1006.87 1006.39 1005.87 1004.98 1004.39 1003.74 1002.38 1000.99 999.19 996.92 997.25 997.47 997.51 998.01 998.97 999.85 1000.53 1001.38 1002.20 1002.64 1003.57 1004.36 1004.98 1005.54 1005.70
1017.52 1017.49 1016.63 1015.76 1013.70 1014.80 1015.29 1014.94 1014.55 1013.98 1012.85 1012.25 1011.48 1010.94 1010.76 1010.24 1009.83 1009.70 1009.06 1008.30 1007.53 1006.80 1005.88 1005.39 1004.76 1003.71 1002.41 1001.40 1000.18 999.28 997.39 997.60 998.24 998.93 999.61 1000.18 1000.83 1001.58 1002.17 1002.86 1003.62 1004.04 1004.28 1004.87
1019.32 1018.89 1017.90 1016.87 1016.25 1015.83 1015.92 1016.06 1015.42 1014.36 1013.20 1012.48 1012.21 1011.78 1011.56 1011.22 1010.81 1010.60 1009.97 1009.31 1008.28 1007.59 1006.76 1006.41 1005.80 1004.97 1003.94 1003.12 1002.15 1001.01 999.95 998.90 998.46 998.91 999.32 999.82 1000.42 1001.13 1001.53 1001.79 1002.27 1002.85 1003.00 1003.58
1019.15 1018.90 1018.47 1017.96 1017.79 1017.21 1016.68 1016.49 1015.86 1014.92 1013.97 1013.34 1012.58 1012.44 1012.18 1012.06 1011.74 1011.12 1010.62 1009.83 1009.08 1008.18 1007.64 1006.99 1006.48 1005.63 1004.74 1003.96 1003.25 1002.27 1001.39 1000.48 999.33 998.97 999.06 999.11 999.39 1000.31 1000.58 1001.15 1002.42 1003.21 1003.06 1004.08
Wind_Speed
20 16 19 21 20 21 19 18 21 16 13 17 20 15 18 18 19 20 20 21 23 24 23 22 21 21 20 19 19 17 15 13 10 10 10 9 9 7 5 6 7 7 5 6
14 21 20 18 18 19 20 14 18 17 16 15 16 14 16 19 18 20 20 22 23 23 23 24 23 22 22 21 19 17 15 13 11 9 8 8 7 9 7 6 7 7 7 6
21 11 20 21 19 17 19 19 18 14 17 15 15 12 15 17 18 19 19 21 22 24 26 25 25 24 22 22 20 18 16 15 13 12 8 6 7 5 7 7 8 8 8 8
20 22 9 22 21 19 19 18 20 16 18 15 20 13 10 10 17 20 20 19 22 24 24 24 25 25 25 22 21 18 17 15 14 13 12 12 10 9 7 7 9 10 9 9
15 18 22 19 19 19 17 17 17 18 19 17 20 17 19 34 29 23 22 23 22 24 26 27 28 26 25 23 22 20 18 16 15 15 12 12 12 10 9 9 10 4 8 9
17 15 15 21 17 15 18 18 17 15 15 18 23 21 19 14 12 26 25 24 23 24 25 25 26 24 23 23 22 21 20 18 17 17 16 13 14 11 10 9 9 9 9 9
18 21 17 12 17 21 16 18 14 15 15 18 24 25 18 17 25 28 28 25 25 23 24 24 26 26 25 25 24 21 21 21 20 19 18 15 13 13 9 9 8 9 9 10
13 17 22 17 21 18 23 21 14 24 15 21 25 27 23 25 16 13 17 26 26 26 24 25 27 26 25 25 24 23 23 22 21 20 19 17 15 12 12 10 10 9 8 8
10 21 3 5 15 21 21 26 25 26 21 18 18 28 24 25 25 17 12 22 17 28 25 26 25 25 25 24 25 24 22 23 22 23 18 17 16 16 14 12 12 9 9 7
9 13 16 4 5 17 20 15 22 19 25 26 20 23 19 25 23 26 18 13 24 25 24 23 24 25 24 26 24 24 23 23 21 22 19 18 18 17 14 13 12 13 10 9
16 11 15 17 12 18 16 20 18 19 23 20 19 15 17 24 25 21 25 17 17 20 21 21 22 24 25 24 24 25 24 22 22 21 20 20 18 19 17 13 13 12 11 9
9 13 14 23 12 15 21 24 25 18 22 20 21 16 6 18 24 21 19 23 22 19 19 21 20 23 23 24 24 25 25 26 24 22 20 20 19 19 19 17 16 13 13 12
10 10 14 19 15 16 19 23 17 19 23 23 21 18 14 6 3 10 20 22 21 22 20 16 18 20 22 24 22 24 25 26 25 22 23 21 21 20 19 19 17 16 14 13
8 15 17 15 8 14 14 26 24 23 19 21 21 21 24 11 5 10 13 17 21 20 21 20 21 20 21 21 21 21 24 24 24 24 24 23 22 21 20 17 18 17 16 15
11 19 20 19 21 15 17 19 15 22 18 21 20 25 23 20 13 7 5 7 8 5 9 19 17 16 17 17 19 19 21 20 22 21 22 22 21 20 18 19 18 17 17 16
15 18 19 20 20 17 20 20 19 22 21 21 21 25 23 17 21 15 5 8 4 7 5 9 10 12 15 18 18 19 19 20 21 20 22 19 20 20 20 19 19 17 17 16
14 8 13 19 20 22 23 24 24 24 25 23 22 22 20 18 9 17 6 3 5 8 8 6 9 9 14 18 17 19 20 18 19 18 20 19 19 20 20 19 19 19 18 16
14 11 11 13 18 18 17 16 18 20 27 25 25 25 24 23 13 8 5 6 8 9 9 9 9 10 11 12 18 19 20 20 19 20 18 20 19 20 19 19 20 19 17 17
18 13 7 6 13 15 25 6 8 10 18 26 25 24 25 22 24 13 2 4 7 10 12 11 11 12 11 13 14 16 18 20 19 19 21 21 21 20 19 20 19 17 16 16
20 16 10 14 11 17 15 7 9 9 12 23 10 12 12 16 14 10 13 8 9 10 11 12 13 13 13 14 15 17 20 19 22 21 22 18 18 18 20 19 19 17 15 16
13 13 16 16 12 11 7 4 8 8 2 16 13 17 13 12 11 11 12 11 11 11 12 14 16 13 15 16 17 17 17 21 19 17 17 17 18 18 17 16 15 16 16 15
8 7 11 16 17 17 16 10 7 7 11 12 14 10 14 14 9 12 10 12 13 13 12 13 13 15 15 14 15 16 18 13 15 17 17 17 18 16 15 17 15 16 15 14
3 6 5 5 7 5 6 8 12 15 14 12 13 9 12 14 9 10 11 11 11 12 12 12 13 14 16 20 8 13 13 13 14 15 16 16 16 16 14 16 16 14 14 14
5 7 5 6 4 9 15 13 12 14 14 15 10 7 9 9 9 9 10 11 10 10 12 13 13 14 16 18 18 18 3 10 12 14 14 14 16 16 15 15 14 14 14 14
2 5 4 6 12 18 11 10 12 14 11 5 7 7 8 9 9 8 7 10 11 10 11 12 13 13 14 15 16 18 17 9 13 13 14 15 14 16 15 14 14 14 14 12
3 4 4 1 3 6 4 11 14 14 11 7 7 8 7 6 8 8 8 7 8 10 10 10 11 13 14 14 15 17 18 16 9 10 13 14 14 15 14 14 9 11 9 10
Wind_Direction
197 214 214 215 229 238 268 239 228 213 175 229 219 173 150 194 166 157 166 171 179 182 178 181 187 182 178 179 179 186 185 163 176 179 191 194 178 190 196 189 118 152 182 181
187 222 225 229 231 232 253 260 264 234 189 206 225 230 188 169 174 163 172 174 180 182 178 182 190 187 186 182 182 182 184 170 190 195 203 199 213 182 200 203 154 195 189 176
229 213 221 233 231 237 233 242 245 251 236 208 234 225 234 229 172 164 175 177 181 186 183 183 189 190 191 184 187 183 185 177 188 201 199 201 210 224 200 172 171 189 187 187
226 246 218 217 235 228 237 220 258 259 257 224 222 238 281 281 190 174 178 184 181 185 190 186 188 195 192 189 188 184 187 184 186 208 188 192 204 207 186 212 193 163 197 191
225 228 241 222 235 226 243 252 227 241 254 261 248 226 185 204 196 176 187 184 187 185 188 186 194 194 193 190 188 188 184 190 190 192 218 185 220 201 194 211 140 204 173 204
266 263 236 245 225 237 240 243 256 246 234 241 237 248 228 202 232 190 185 187 194 186 187 190 192 190 196 193 191 190 183 190 197 188 209 201 196 234 212 209 165 188 177 191
230 237 246 248 254 215 214 228 221 222 219 236 224 234 246 199 197 242 181 190 188 191 189 190 186 193 194 194 193 190 185 189 191 191 194 209 206 215 242 182 218 202 209 193
279 218 214 214 232 237 217 230 229 220 222 232 224 222 223 250 210 202 291 181 190 189 188 190 193 193 193 196 191 194 186 190 192 196 194 197 200 205 221 207 209 223 224 213
274 245 162 268 221 231 234 218 240 260 251 255 219 216 237 218 237 169 213 179 219 183 189 189 192 195 194 196 194 193 191 189 194 196 194 192 199 210 202 216 212 221 220 233
300 283 278 251 267 270 265 250 222 235 245 252 244 238 209 215 223 227 224 240 181 202 182 191 191 195 196 198 197 194 196 191 195 199 195 195 194 198 214 205 207 212 225 225
302 287 271 266 212 251 220 250 258 264 223 246 250 245 236 196 208 226 218 220 231 196 187 195 190 192 197 197 198 198 197 196 196 202 197 198 195 197 201 211 202 219 217 225
292 290 266 255 232 249 253 250 235 246 242 227 251 251 288 210 193 212 217 213 222 222 205 192 193 190 193 196 197 197 197 200 197 201 199 198 196 198 198 203 210 203 212 217
293 232 255 249 260 262 262 252 252 267 256 239 228 233 269 125 313 214 212 230 227 220 201 193 199 189 195 193 198 200 197 201 199 199 198 198 201 200 202 197 203 203 206 210
310 277 274 277 288 338 270 229 248 246 246 243 251 232 240 146 179 232 240 216 228 214 226 207 196 191 192 195 192 198 199 200 200 195 202 201 199 201 200 201 198 203 201 203
251 258 265 267 274 274 285 291 255 240 261 261 243 243 259 241 204 203 249 245 240 308 281 214 224 195 178 190 187 191 204 199 201 194 201 199 199 199 199 200 198 201 201 202
244 249 277 274 279 266 261 256 253 263 255 256 266 276 277 297 333 211 229 282 346 307 274 291 226 221 189 190 190 189 200 202 201 196 200 196 192 198 199 198 200 200 202 202
256 251 261 264 260 264 241 241 241 242 242 245 242 251 267 268 284 342 242 307 309 270 303 309 299 270 215 196 196 199 197 206 200 206 196 199 193 197 200 197 196 201 202 202
220 251 253 266 274 245 270 242 249 253 244 236 241 254 258 263 285 294 331 341 317 304 294 283 271 266 269 251 203 200 194 199 211 203 198 197 195 197 196 197 200 199 199 202
246 210 251 242 258 260 258 47 2 332 292 227 235 234 251 260 263 263 304 2 316 302 293 281 275 272 272 267 262 202 200 191 208 204 206 196 198 193 196 199 198 199 201 202
232 229 203 259 248 256 276 46 344 314 248 359 260 219 275 288 286 255 22 340 324 317 306 299 287 281 266 245 249 251 197 199 201 211 202 199 197 198 200 200 198 197 200 205
198 231 208 228 248 260 322 11 322 257 68 338 351 350 320 298 348 3 343 353 340 327 321 343 310 282 255 242 228 232 239 201 202 203 200 196 199 200 198 197 199 200 202 207
182 205 220 238 238 244 18 307 295 0 313 332 329 338 339 324 354 346 343 355 356 342 336 349 343 333 320 261 225 218 232 221 186 190 200 194 195 198 192 195 195 200 200 207
278 351 297 301 256 16 1 319 318 316 294 291 295 308 318 306 344 339 345 345 352 351 352 360 354 350 355 349 292 211 221 212 179 184 192 195 191 193 196 189 194 195 198 208
355 358 285 325 227 350 340 325 319 306 295 262 274 295 301 314 319 344 344 344 347 1 8 8 359 4 6 2 5 3 232 172 173 185 190 194 187 189 202 186 194 202 202 206
320 314 290 297 330 324 297 319 332 325 334 47 13 5 10 351 350 343 333 343 352 356 10 14 7 6 13 3 2 3 0 319 191 192 194 192 192 191 194 194 195 196 207 205
310 342 342 327 333 326 26 359 345 336 333 354 21 345 348 328 307 320 307 322 343 6 7 12 7 5 6 8 2 2 358 354 302 194 200 194 193 184 190 195 171 54 98 109